Dewpoint
72 72 72 71 71 70 70 70 70 69 69 70 69 69 70 72 71 71 71 70 72 71 70 69 70 72 73 73 73 74 74 75 75 75 75 75 75 75 74 75 74 74 75 75 75 74 74 73 73 75 74 73 74 73 73 74 74 73 72 73 72 72 70 69 68 68 70 72 72 72 72 72 71 70 70 72 73 74 74 73 73 72 72 72 72
72 73 73 72 71 70 70 70 70 70 69 70 70 70 70 71 72 71 70 69 70 71 70 70 70 71 72 73 73 73 74 74 75 75 75 75 74 75 74 75 74 74 75 74 74 75 74 73 73 74 75 73 74 74 73 72 74 73 73 73 73 74 72 71 70 69 69 70 72 73 73 73 72 72 71 73 74 75 74 74 74 74 75 75 74
72 73 73 72 71 71 70 70 70 70 69 70 70 70 70 71 72 71 70 69 69 70 71 70 70 71 71 72 72 73 74 74 74 74 74 75 74 74 74 75 74 74 74 74 74 74 74 74 73 74 75 74 74 73 73 72 72 72 72 72 72 72 73 73 71 71 71 71 72 72 72 72 72 72 74 74 74 74 74 73 73 74 74 74 74
72 73 73 72 72 71 70 70 70 70 69 69 70 71 71 71 72 71 70 70 69 69 71 71 71 71 71 72 72 72 73 73 73 73 74 74 74 74 74 73 74 74 74 74 74 74 73 73 74 74 74 73 73 73 73 72 72 72 72 73 73 72 72 73 73 71 71 70 70 72 72 71 72 74 75 75 74 74 74 74 74 74 74 74 74
72 73 72 72 72 71 70 70 70 70 69 69 70 71 71 71 72 71 70 70 69 69 70 71 72 72 71 72 72 72 72 73 73 72 73 74 74 74 74 73 73 74 74 74 76 74 74 73 73 73 73 73 73 73 73 72 72 72 71 72 72 72 73 73 73 73 72 71 70 70 72 72 73 73 74 73 73 73 74 74 74 74 74 75 75
73 72 72 72 72 71 71 70 69 69 69 69 70 70 71 71 71 72 70 69 70 69 69 70 71 72 72 72 72 72 72 73 73 72 72 73 74 74 74 74 73 72 73 74 74 74 74 73 73 73 73 73 73 73 73 73 73 73 72 72 72 72 72 71 71 71 71 71 71 72 71 72 72 72 73 74 73 73 73 74 75 75 75 74 74
73 73 72 72 72 71 71 70 70 69 69 69 69 70 70 71 71 71 71 69 69 69 68 69 70 72 72 72 72 72 72 73 73 72 72 73 73 74 74 74 74 73 72 73 74 74 74 73 73 73 73 73 72 72 73 73 73 73 73 73 72 73 73 73 73 73 73 73 73 73 73 72 73 72 73 75 74 74 72 72 72 74 74 74 74
73 73 73 72 72 72 71 70 70 69 69 70 70 70 70 71 71 71 71 70 68 68 68 68 69 71 72 72 72 72 71 72 72 72 72 72 73 73 73 73 73 73 73 73 73 73 73 73 73 73 73 73 73 73 72 73 74 73 73 73 74 73 72 72 72 73 72 72 72 72 71 71 70 72 73 73 72 72 73 73 72 72 73 74 74
73 73 73 72 72 72 72 71 70 70 70 70 70 70 70 71 71 71 71 70 68 68 69 69 69 70 71 72 72 72 71 72 72 72 72 71 72 72 73 73 73 73 72 72 73 73 73 72 72 72 74 77 76 75 75 75 74 73 73 73 73 73 73 73 73 73 73 72 72 72 71 71 71 71 71 71 72 73 72 73 72 73 73 73 74
73 73 73 73 72 72 72 71 71 70 70 70 70 70 70 71 71 71 70 70 69 68 68 69 69 69 70 71 71 72 72 72 72 69 70 72 71 71 72 73 73 73 73 72 72 73 72 72 72 76 75 73 72 72 72 73 75 74 73 74 74 73 73 73 73 73 73 72 73 72 71 71 71 71 71 71 73 73 72 72 71 72 72 72 73
73 73 73 73 73 72 72 71 71 71 71 70 70 71 70 71 71 71 71 70 70 69 68 68 69 70 70 70 70 71 72 72 68 66 67 68 71 71 72 72 72 72 72 72 72 71 72 72 72 75 77 77 72 70 70 69 70 71 72 75 77 74 73 73 73 73 73 73 72 71 71 71 71 72 72 72 74 73 73 72 72 71 71 71 71
72 73 73 73 73 72 72 71 71 71 71 71 71 71 71 71 71 71 71 71 70 69 68 69 69 70 70 71 70 70 71 70 65 65 66 66 69 72 71 72 72 72 72 72 72 72 71 72 72 72 72 72 73 72 71 70 68 69 69 70 73 75 74 74 74 73 72 73 72 72 71 71 71 71 73 74 73 73 72 72 72 72 71 70 70
72 73 73 73 73 72 72 71 71 71 71 71 71 71 71 71 70 71 71 71 71 70 69 69 69 69 70 71 71 71 71 68 64 64 65 65 66 70 71 71 72 72 72 71 71 72 72 71 71 71 70 75 76 73 72 72 69 67 68 69 70 70 68 68 69 72 71 70 70 69 69 70 70 71 72 73 74 71 72 72 72 72 71 71 71
72 73 73 73 73 72 72 72 71 71 72 72 71 71 71 71 71 71 72 72 71 70 69 69 70 70 70 71 72 72 71 68 63 62 63 63 64 67 71 70 71 72 72 72 71 71 72 71 71 71 70 70 71 72 73 72 72 71 70 70 71 72 70 67 65 65 68 69 68 68 68 69 69 69 72 72 71 71 71 72 72 71 71 71 72
72 72 73 73 73 73 73 72 72 72 72 72 72 71 71 71 71 71 71 71 71 70 69 68 70 71 70 71 72 72 72 66 62 61 61 62 63 66 71 71 70 70 72 72 72 72 71 72 72 71 70 70 70 73 73 73 72 72 72 71 71 72 72 72 72 72 70 69 69 69 70 70 70 70 70 71 72 72 74 74 72 72 72 72 71
72 72 73 73 73 73 73 72 72 72 72 72 72 72 71 71 71 71 70 71 71 71 70 69 69 70 71 71 71 72 72 63 61 61 61 61 62 69 71 72 71 71 70 72 73 73 72 72 72 71 71 71 71 70 74 74 74 73 73 73 73 73 73 73 69 70 73 72 71 71 71 71 69 72 72 73 74 74 74 73 72 71 70 68 68
72 72 73 73 73 73 73 73 72 72 72 72 72 72 71 71 71 72 70 70 71 71 70 69 69 69 70 71 71 71 71 65 60 59 60 60 62 70 71 72 72 72 72 72 72 73 73 72 72 71 72 72 70 65 66 75 75 74 74 74 75 74 74 75 69 65 65 64 65 66 66 65 67 65 64 65 71 72 72 71 72 70 68 66 65
72 73 72 73 73 73 73 73 73 72 72 72 72 72 72 71 71 72 71 69 70 71 70 70 70 69 69 69 71 71 71 66 58 58 59 59 64 70 72 72 72 72 72 72 73 74 75 77 76 72 71 72 68 65 64 70 74 75 75 75 75 76 76 76 76 74 65 64 64 64 65 67 68 65 64 63 66 70 72 72 72 68 67 66 64
71 73 72 73 73 74 74 74 73 73 72 72 72 72 72 72 71 72 72 70 69 71 71 71 70 70 69 69 71 71 71 67 57 58 58 58 64 71 72 72 72 72 72 71 71 72 72 75 77 75 72 71 66 64 63 68 71 73 74 74 74 74 74 73 73 73 73 72 70 69 70 69 69 71 72 68 67 71 72 72 72 69 66 65 67
70 73 73 73 73 74 74 74 74 73 73 72 72 73 73 72 71 71 71 71 69 70 71 71 70 70 70 70 69 69 69 72 64 56 56 56 59 71 72 72 72 72 72 72 71 71 70 71 71 66 65 65 64 62 61 62 71 72 73 73 72 72 73 73 73 74 75 74 72 72 72 72 72 73 73 73 73 72 71 72 72 70 68 68 67
71 73 73 73 73 74 74 74 74 74 73 73 73 73 73 72 72 71 71 71 70 69 70 71 71 71 71 70 70 70 69 70 67 55 55 55 57 64 72 72 72 72 72 72 71 71 70 70 70 66 62 60 60 59 58 58 65 73 74 73 73 73 74 75 75 78 74 74 74 73 74 74 74 74 74 75 75 74 71 71 72 71 70 67 64
71 73 73 73 73 74 74 75 75 74 74 74 73 73 73 73 72 71 71 71 70 70 70 71 71 71 71 71 71 70 70 67 70 57 55 54 56 58 70 72 72 72 72 72 72 71 71 71 70 67 62 60 58 57 56 57 59 71 74 68 66 67 75 75 74 74 73 73 72 73 74 75 76 75 74 69 66 72 73 72 72 72 67 66 64
71 74 74 73 74 74 75 75 75 75 75 75 74 73 74 73 73 72 72 71 71 70 71 72 71 71 71 71 71 71 72 71 65 65 55 54 54 56 61 68 66 73 72 72 72 72 72 72 72 70 62 59 57 57 57 57 60 66 63 62 60 66 74 73 73 72 70 70 71 72 72 72 72 71 70 66 66 65 66 68 69 70 69 69 68
72 73 74 73 73 74 74 75 75 75 75 75 75 75 74 74 73 73 72 71 71 70 70 71 71 71 71 71 72 72 72 72 66 62 61 54 54 54 56 61 64 71 73 72 72 72 72 73 71 66 61 56 56 57 57 58 64 60 58 60 61 69 71 72 71 72 71 70 70 70 71 72 71 71 69 65 66 67 67 68 68 69 69 68 68
72 73 74 73 73 74 74 75 75 75 75 76 76 75 75 75 74 73 73 72 71 70 70 70 70 71 71 71 71 72 72 72 72 65 60 56 54 54 55 57 59 63 71 72 72 73 69 67 64 62 61 57 56 57 57 57 57 59 59 60 71 70 70 71 71 72 71 71 71 71 71 71 72 71 68 66 67 68 69 67 67 67 68 68 66
71 72 73 73 73 74 74 74 75 75 75 75 76 76 75 75 74 74 73 72 71 71 70 70 69 69 70 70 71 71 72 72 72 70 63 60 57 55 55 56 58 60 67 71 69 65 60 59 58 58 60 61 64 65 66 66 59 60 61 64 70 70 70 71 71 71 71 71 70 71 71 71 70 68 68 68 67 67 67 66 65 67 66 64 62
72 72 73 73 74 74 74 74 74 75 75 75 76 76 76 75 75 74 74 73 72 71 71 70 69 68 68 69 70 71 71 72 73 71 68 66 64 62 58 59 57 59 64 68 68 66 63 67 67 62 62 62 66 66 66 63 63 64 65 68 69 70 70 71 71 71 70 71 71 72 69 67 67 68 67 67 67 67 67 65 64 64 64 65 63
72 72 73 73 74 74 74 74 74 75 74 75 75 75 76 76 75 75 74 73 73 72 71 70 70 69 68 68 68 69 70 71 73 72 69 67 66 65 62 62 62 63 66 68 70 71 69 63 62 68 67 68 70 70 69 67 66 65 66 67 69 70 71 74 74 72 72 72 71 67 64 65 66 66 66 66 67 66 66 64 65 64 64 63 62
72 73 73 74 74 73 74 74 74 74 75 75 75 75 75 75 75 75 75 75 74 72 72 71 71 70 69 68 68 68 69 70 72 67 69 62 65 66 64 63 64 64 64 63 69 71 70 70 70 70 70 70 70 71 71 70 68 67 67 68 69 70 71 72 72 72 71 69 66 64 64 64 65 66 66 66 66 65 64 62 64 63 64 63 62
73 73 74 74 74 73 74 74 74 74 75 74 75 68 56 46 53 74 75 71 67 65 65 71 72 71 70 70 70 68 68 69 65 61 58 56 56 58 59 57 58 63 62 59 65 70 71 71 71 71 71 71 71 71 71 71 71 70 70 67 70 71 70 70 71 68 65 64 64 63 63 64 64 64 64 64 65 65 63 61 64 65 63 63 62
75 74 74 74 73 74 73 74 74 74 74 74 73 70 67 63 48 44 48 60 64 61 60 61 63 65 70 71 70 64 64 63 59 55 55 54 53 54 54 53 54 55 56 61 65 68 70 70 71 71 71 71 71 71 71 71 71 71 71 71 71 70 68 69 67 63 63 63 64 65 64 64 64 67 64 64 63 65 63 63 63 64 63 62 61
73 71 72 71 70 68 71 71 71 73 74 74 71 70 69 68 65 51 44 46 49 51 54 58 58 59 61 66 69 69 61 59 56 52 53 53 53 52 52 52 52 53 53 57 66 67 69 70 70 71 71 71 71 71 71 71 71 71 71 71 71 69 67 65 63 63 62 62 64 64 64 64 63 62 63 63 63 63 62 61 63 64 63 62 60
70 69 68 68 69 69 70 70 69 70 70 70 70 69 70 69 68 65 61 48 44 45 46 49 54 57 58 58 59 61 61 58 52 50 51 52 52 51 51 51 51 49 53 64 68 68 68 69 70 71 71 71 71 71 71 71 71 71 71 70 69 65 64 63 62 63 63 64 62 62 63 63 63 62 61 62 60 59 62 62 62 62 60 60 62
69 69 69 69 69 69 70 69 70 70 70 69 69 69 69 69 69 67 66 67 67 59 50 45 45 50 50 52 57 58 55 53 49 49 50 51 51 51 50 52 46 49 58 67 68 68 69 69 69 70 71 71 71 71 71 71 70 70 68 67 65 63 63 63 63 63 64 64 64 63 62 61 63 63 63 60 58 59 63 61 61 60 61 61 60
70 71 72 73 70 70 70 70 70 70 70 69 69 69 69 69 68 68 69 69 69 69 67 63 50 43 53 49 42 45 48 49 48 48 49 49 48 48 51 63 64 63 64 67 68 69 69 69 69 70 71 71 71 71 71 70 67 66 66 65 64 62 62 62 63 64 64 64 63 63 62 62 63 61 60 61 61 61 60 60 60 61 60 60 58
66 68 69 71 72 71 71 70 70 70 69 70 70 70 70 70 69 69 68 69 70 68 64 61 59 52 47 43 42 43 43 43 45 46 46 46 48 55 67 67 67 66 66 66 68 69 70 70 70 71 71 71 71 71 70 68 67 66 65 64 63 62 61 60 61 62 64 63 62 61 60 61 62 61 62 62 60 59 60 57 56 58 60 58 57
64 65 67 70 71 71 71 70 70 70 69 68 69 70 70 70 69 69 69 69 68 66 64 62 64 64 60 60 53 45 44 45 45 45 46 48 50 64 70 69 68 67 66 67 68 68 69 67 68 70 71 71 70 69 67 67 66 65 63 64 64 63 62 62 61 61 62 63 63 62 61 61 61 61 59 58 59 60 59 58 58 59 58 59 58
62 62 63 66 69 71 71 71 70 68 69 70 70 69 69 70 69 70 69 69 67 66 66 67 67 68 66 62 63 61 56 52 53 53 54 56 63 69 70 70 70 69 67 66 66 66 66 67 67 67 67 67 66 66 66 66 66 65 65 65 65 64 62 63 62 63 63 62 62 63 62 61 61 59 57 57 58 58 58 59 57 57 58 57 57
63 59 58 60 62 66 68 68 68 69 70 69 68 68 68 69 69 69 68 67 67 67 68 68 66 64 63 62 62 63 66 68 67 67 68 68 68 67 66 66 66 65 65 65 65 65 66 66 66 67 67 67 66 66 66 66 66 65 65 64 64 64 64 64 64 63 62 62 62 63 60 59 59 61 61 59 58 59 57 56 57 57 56 56 57
62 61 59 58 61 62 64 65 66 67 68 68 68 68 68 69 69 69 69 68 68 67 66 65 64 64 64 64 64 66 68 67 67 67 66 65 65 65 65 64 64 64 64 64 64 64 64 65 65 65 65 65 66 65 65 65 65 65 64 64 63 63 63 63 63 63 63 63 63 63 64 61 60 61 62 61 59 58 57 57 57 57 56 56 57
60 60 61 58 58 61 62 62 63 64 65 66 66 66 66 67 68 68 68 66 64 63 63 63 63 62 62 58 54 59 66 64 63 63 63 63 62 62 62 62 61 60 60 59 58 58 59 59 58 58 58 59 60 61 61 62 62 63 63 61 62 62 61 60 61 62 61 59 57 57 57 61 60 58 55 56 57 59 59 57 56 56 55 55 54
59 58 58 58 57 59 59 59 60 60 61 61 62 63 63 64 65 64 63 62 61 61 60 60 59 57 52 50 52 54 61 62 61 60 59 58 57 57 57 57 57 57 56 56 56 55 54 53 53 53 52 52 51 51 50 52 54 53 54 54 52 52 53 53 54 56 56 55 54 53 52 52 52 53 53 54 52 53 52 53 52 52 53 53 53
58 58 58 59 57 57 57 58 58 58 58 57 57 59 60 61 61 61 61 61 61 60 60 59 59 58 56 52 53 53 57 57 57 56 56 56 55 55 55 55 55 55 54 53 53 52 51 49 49 48 48 47 47 45 44 45 47 48 49 50 50 50 50 51 51 52 53 52 53 53 52 52 51 51 51 51 51 51 51 52 52 52 52 53 52
58 56 57 57 56 56 56 56 55 56 56 56 56 56 56 57 57 57 57 57 57 57 57 57 57 57 56 55 54 55 55 55 54 54 54 54 53 53 53 53 53 53 53 52 51 50 48 47 46 44 43 42 41 41 41 42 43 45 45 46 47 48 48 49 49 50 51 51 52 52 52 52 51 51 50 51 50 50 50 51 51 51 50 51 51
56 56 56 55 55 55 54 54 54 54 55 55 54 54 55 54 54 54 55 55 55 55 55 55 55 54 53 52 52 52 52 52 52 52 52 52 51 51 51 50 49 48 47 47 46 45 43 41 40 38 37 37 37 37 37 38 39 39 40 41 42 43 43 45 47 48 50 51 51 51 51 51 51 51 50 50 51 50 50 50 50 51 49 49 50
55 55 55 54 54 54 54 53 54 53 53 52 52 52 53 53 53 53 53 53 53 53 53 54 54 54 54 53 53 52 51 51 50 50 50 50 49 50 48 46 46 45 43 42 41 41 39 37 36 35 34 35 35 36 36 36 37 37 37 37 38 38 39 42 44 46 48 50 52 52 52 52 51 52 54 51 50 50 51 50 50 50 49 49 49
52 53 53 53 53 53 53 53 53 52 52 52 52 51 51 51 51 52 52 52 51 52 52 52 52 52 52 52 52 52 52 51 51 50 50 49 47 45 44 43 42 41 41 40 38 36 35 34 35 34 34 33 34 34 34 34 34 35 36 36 36 36 37 40 40 41 43 46 50 53 50 51 50 50 51 51 51 51 51 49 50 49 49 49 49
50 50 51 52 51 51 51 51 51 52 51 51 51 51 51 50 50 50 50 50 50 50 49 49 49 49 49 49 50 49 49 48 47 47 46 45 45 44 44 43 41 39 38 38 37 35 33 32 34 34 34 34 35 34 34 34 35 35 35 35 36 36 38 39 38 39 40 45 49 51 51 51 50 50 49 49 49 49 48 48 49 48 49 49 49
48 49 49 49 49 49 50 50 50 50 50 50 50 49 49 48 48 48 49 49 48 49 48 48 48 48 48 49 49 49 48 48 47 47 46 44 43 42 42 42 42 41 39 38 38 37 35 35 36 36 35 35 35 35 35 36 35 35 35 35 35 36 35 37 38 39 41 45 44 45 46 46 46 45 43 43 44 44 44 45 46 47 48 49 50
48 48 48 48 48 48 48 48 48 48 49 48 48 48 48 47 47 47 47 47 47 47 47 47 47 47 47 47 47 47 47 46 44 43 43 41 40 40 38 37 38 38 38 38 38 37 37 37 38 38 38 37 36 36 35 35 35 34 34 34 35 34 33 35 36 38 41 44 43 42 44 44 43 40 38 37 39 40 39 41 43 44 45 47 48
48 47 47 47 47 48 48 47 47 47 46 46 46 46 46 46 46 46 46 46 46 46 46 46 47 47 47 47 47 46 46 45 44 43 41 40 39 37 36 36 36 36 36 36 36 36 36 37 37 37 37 38 37 36 36 35 34 33 34 35 33 34 33 35 36 35 37 41 48 46 45 46 47 47 41 38 37 39 42 43 42 41 42 45 47